Regional Weather Roundup
Issued by NWS

Home | Current Version | Previous Version | Graphics & Text | Print | Product List | Glossary On
Versions: 1 2 3 4 5 6 7 8 9 10 11 12 13 14 15 16 17 18 19 20 21 22 23 24 25 26 27 28 29 30 31 32 33 34 35 36 37 38 39 40 41 42 43 44 45 46 47 48 49 50
057
ASUS45 KBOU 091607
RWRCO

WEATHER ROUNDUP FOR COLORADO
NATIONAL WEATHER SERVICE DENVER/BOULDER CO
900 AM MST FRI DEC 09 2016

NOTE: "FAIR" INDICATES FEW OR NO CLOUDS BELOW 12000 FEET WITH NO
SIGNIFICANT WEATHER AND/OR OBSTRUCTIONS TO VISIBILITY.

COZ001>005-013-030-031-091700-
...NORTHWEST COLORADO...

CITY           SKY/WX    TMP DP  RH WIND       PRES   REMARKS
CRAIG          CLOUDY    29  22  75 NE5       30.22S WCI  24
HAYDEN         CLOUDY    25  19  80 E9        30.22R WCI  15
MEEKER         CLOUDY    35  21  56 CALM      30.25R
MOUNT WERNER   NOT AVBL
STEAMBOAT SPGS CLOUDY    19  17  89 CALM      30.23R
WALDEN           N/A     30  23  74 W10       30.17R WCI  21
$$

COZ006>008-011-091700-
...WEST CENTRAL VALLEYS...

CITY           SKY/WX    TMP DP  RH WIND       PRES   REMARKS
GRAND JUNCTION CLOUDY    25  17  72 CALM      30.34R
MONTROSE       PTSUNNY   30  19  63 CALM      30.32F
EAGLE          FLURRIES  28  25  86 E9        30.29R WCI  20
RIFLE          CLOUDY    26  16  65 CALM      30.33F
DELTA          CLOUDY    31  16  55 CALM      30.33S
NUCLA          NOT AVBL
$$

COZ017>023-064>068-091700-
...SOUTHWEST COLORADO...

CITY           SKY/WX    TMP DP  RH WIND       PRES   REMARKS
DURANGO        FAIR      29  15  56 E3        30.34R
CORTEZ         FAIR      33  24  69 CALM      30.34R
PAGOSA SPRINGS FAIR      25  15  64 CALM      30.35R
TELLURIDE      CLOUDY    30  26  87 SE6       30.35S WCI  24
WOLF CREEK PAS FAIR      14  14 100 W14G20    30.35R WCI  -1
$$

COZ009-010-012-014-032>034-037-058>063-091700-
...CENTRAL COLORADO...

CITY           SKY/WX    TMP DP  RH WIND       PRES   REMARKS
ASPEN          NOT AVBL
BUENA VISTA    FAIR      38  17  42 W17G26    30.19S
COPPER MTN     LGT SNOW  23  18  80 MISG      30.23R
BERTHOUD PASS  HVY SNOW  14   3  62 MISG      30.05F VSB<1/4
COTTONWOOD PAS FAIR      32  21  64 NW12G26   30.17R WCI  23
GUNNISON       NOT AVBL
KREMMLING      CLOUDY    34  27  75 W10       30.23R WCI  26
LEADVILLE      CLOUDY    23  18  81 N10G20    30.21R WCI  12
MONARCH PASS   CLOUDY    18  16  93 W48G61    30.29S WCI  -6
SALIDA         FAIR      43  22  43 W21       30.26R
SUNLIGHT       LGT SNOW  21  19  93 SW10G22   30.29R WCI  10
WILKERSON PASS FAIR      21  18  86 W17G32    30.15R WCI   7
$$

COZ069>075-091700-
...SAN LUIS VALLEY/SANGRE DE CRISTO MOUNTAINS...

CITY           SKY/WX    TMP DP  RH WIND       PRES   REMARKS
ALAMOSA        FAIR      16   4  59 CALM      30.29S
LA VETA PASS   FAIR      21  14  73 NE31G45   30.16R WCI   3
SAGUACHE       FAIR      18  10  73 CALM      30.31R
$$

COZ035-036-038>040-091700-
...NORTHERN COLORADO FRONT RANGE...

CITY           SKY/WX    TMP DP  RH WIND       PRES   REMARKS
DENVER INTL AP FAIR      27  19  72 SW6       30.08R WCI  20
DMNS CITY PARK   N/A     22  12  64 SE7       30.10R WCI  14
AURORA         MOSUNNY   35  27  72 SE6       30.09R WCI  30
FRONT RANGE AP NOT AVBL
ERIE MUNI ARPT FAIR      12   9  87 CALM      30.10R
BOULDER MUN AP FAIR      14  10  85 CALM      30.07R
CENTENNIAL     FAIR      35  22  58 S9        30.08R WCI  28
BROOMFIELD     MOSUNNY   27  19  74 S3        30.08R
FORT COLLINS   FAIR      10   7  85 NW6       30.11F WCI   1
LONGMONT       FAIR      13   6  72 CALM      30.11S
$$

COZ041-046-047-076>085-087-088-091700-
...PIKES PEAK/PALMER DIVIDE AND SOUTHERN FOOTHILLS...

CITY           SKY/WX    TMP DP  RH WIND       PRES   REMARKS
COLO. SPRINGS  FAIR      34  18  52 N5        30.13R WCI  30
A. F. ACADEMY  FAIR      27  20  73 N5        30.12R WCI  22
SCHRIEVER AFB  NOT AVBL
ELLICOTT       LGT RAIN N/A N/A N/A N3        30.11
FALCON         FAIR      39  21  50 W8        30.13R
FORT CARSON    FAIR      25  17  72 N7        30.11R WCI  17
LIMON          FAIR      13   5  70 CALM      30.14R
MONUMENT HILL  FAIR      36  23  60 S5        30.13R
TRINIDAD       FAIR      31  17  56 W12       30.17R WCI  22
$$

COZ042>045-048>051-090-091-091700-
...NORTHEAST COLORADO...

CITY           SKY/WX    TMP DP  RH WIND       PRES   REMARKS
GREELEY ARPT   FAIR      11   5  77 CALM      30.12F
AKRON          FAIR      13   5  70 NW8       30.13R WCI   2
BURLINGTON     FAIR      20  10  65 S20       30.19S WCI   4
WRAY           NOT AVBL
STERLING       FAIR      12   7  79 SW5       30.16R WCI   4
HOLYOKE        FAIR      19  10  68 S12       30.21R WCI   7
FORT MORGAN    FAIR      13   5  72 W8        30.15R WCI   1
$$

COZ086-089-092>099-091700-
...SOUTHEAST COLORADO...

CITY           SKY/WX    TMP DP  RH WIND       PRES   REMARKS
PUEBLO         FAIR      16   6  65 W9        30.19R WCI   4
LA JUNTA       FAIR      17   6  62 W7        30.22S WCI   8
LAMAR          FAIR      18   7  62 W7        30.24R WCI   9
SPRINGFIELD      N/A     23  17  78 S5        30.18R WCI  17
$$




USA.gov is the U.S. government's official web portal to all federal, state and local government web resources and services.